Location: Cuzcurrita-R�o Tir�n
(42.5415°N, 2.9642°W)
Time: 08:40:49
(UTC+00:00)

PSLV R/B - Visible Passes

Search period start: 09 May 2021 00:00
Search period end: 19 May 2021 00:00
Orbit: 568 x 597 km, 98.2° (Epoch: 08 May)

Date Brightness Start Highest point End Pass type
(mag) Time Alt. Az. Time Alt. Az. Time Alt. Az.
09 May 7.1 20:15:49 10° NNW 20:18:52 20° WNW 20:21:54 10° WSW visible
10 May 7.1 20:21:44 10° NNW 20:24:32 17° WNW 20:27:18 10° WSW visible
11 May 7.2 20:27:42 10° NNW 20:30:11 15° WNW 20:32:40 10° W visible
12 May 7.3 20:33:43 10° NNW 20:35:50 14° WNW 20:37:57 10° W visible
13 May 7.5 20:39:51 10° NW 20:41:29 12° WNW 20:43:06 10° W visible
14 May 7.7 20:46:15 10° NW 20:47:07 11° WNW 20:48:00 10° WNW visible
